When you browse on this site, cookies collect data to enhance your experience and personalize the content and advertising you see.
Visit our Privacy Policy to learn more. By continuing to use the site, you agree to this use of cookies and data.
  • In Germany
  • List of Countries
  • For 7 days
  • Water Temperature
  • Satellite Maps
  • Weather Map
  • Weather Widgets
  • user-avatar
    Login

    Hourly Weather Alekseevo-Tuzlovka

    Today, 20 February, Wednesday

    Time Temperature Precipitation Wind Pressure Humidity
    00:00 -6°C° 0 mm 1 mps 757 mmHg 79%
    01:00 -7°C° 0 mm 2 mps 756 mmHg 79%
    02:00 -7°C° 0 mm 2 mps 756 mmHg 78%
    03:00 -7°C° 0 mm 2 mps 756 mmHg 78%
    04:00 -6°C° 0 mm 2 mps 755 mmHg 77%
    05:00 -6°C° 0 mm 2 mps 755 mmHg 76%
    06:00 -6°C° 0 mm 2 mps 754 mmHg 75%
    07:00 -6°C° 0 mm 2 mps 754 mmHg 75%
    08:00 -5°C° 0 mm 2 mps 754 mmHg 76%
    09:00 -5°C° 0 mm 3 mps 754 mmHg 76%
    10:00 -4°C° 0 mm 3 mps 753 mmHg 74%
    11:00 -2°C° 0 mm 3 mps 753 mmHg 73%
    12:00 -1°C° 0 mm 4 mps 753 mmHg 72%
    13:00 -1°C° 0 mm 4 mps 752 mmHg 74%
    14:00 0°C° 0 mm 4 mps 752 mmHg 76%
    15:00 0°C° 0 mm 4 mps 751 mmHg 79%
    16:00 -1°C° 0 mm 4 mps 751 mmHg 80%
    17:00 -1°C° 0 mm 4 mps 750 mmHg 82%
    18:00 -2°C° 0 mm 4 mps 750 mmHg 84%
    19:00 -2°C° 0 mm 4 mps 750 mmHg 85%
    20:00 -3°C° 0 mm 4 mps 750 mmHg 86%
    21:00 -3°C° 0 mm 4 mps 750 mmHg 87%
    22:00 -3°C° 0 mm 4 mps 749 mmHg 87%
    23:00 -3°C° 0 mm 4 mps 749 mmHg 86%

    Tomorrow, 21 February, Thursday

    Time Temperature Precipitation Wind Pressure Humidity
    00:00 -3°C° 0 mm 4 mps 749 mmHg 86%
    01:00 -2°C° 0 mm 4 mps 748 mmHg 87%
    02:00 -2°C° 0 mm 4 mps 748 mmHg 88%
    03:00 -1°C° 0 mm 4 mps 748 mmHg 89%
    04:00 -1°C° 0 mm 5 mps 748 mmHg 91%
    05:00 -1°C° 0 mm 5 mps 747 mmHg 93%
    06:00 -1°C° 0 mm 5 mps 747 mmHg 95%
    07:00 -1°C° 0.2 mm 5 mps 747 mmHg 96%
    08:00 -1°C° 0.2 mm 4 mps 747 mmHg 97%
    09:00 0°C° 0.2 mm 4 mps 746 mmHg 98%
    10:00 0°C° 0 mm 4 mps 746 mmHg 97%
    11:00 0°C° 0 mm 4 mps 746 mmHg 95%
    12:00 +1°C° 0 mm 5 mps 746 mmHg 93%
    13:00 +1°C° 0.1 mm 5 mps 745 mmHg 90%
    14:00 +1°C° 0.1 mm 5 mps 745 mmHg 86%
    15:00 +1°C° 0.1 mm 5 mps 745 mmHg 83%
    16:00 -1°C° 0.3 mm 6 mps 745 mmHg 82%
    17:00 -2°C° 0.3 mm 6 mps 745 mmHg 82%
    18:00 -3°C° 0.3 mm 7 mps 745 mmHg 82%
    19:00 -4°C° 0 mm 6 mps 746 mmHg 80%
    20:00 -6°C° 0 mm 6 mps 746 mmHg 78%
    21:00 -7°C° 0 mm 5 mps 747 mmHg 76%
    22:00 -7°C° 0 mm 5 mps 747 mmHg 76%
    23:00 -8°C° 0 mm 5 mps 748 mmHg 76%

    Day after tomorrow, 22 February, Friday

    Time Temperature Precipitation Wind Pressure Humidity
    00:00 -8°C° 0 mm 5 mps 748 mmHg 76%
    01:00 -8°C° 0 mm 5 mps 748 mmHg 75%
    02:00 -8°C° 0 mm 5 mps 748 mmHg 75%
    03:00 -8°C° 0 mm 5 mps 749 mmHg 75%
    04:00 -8°C° 0 mm 5 mps 749 mmHg 75%
    05:00 -8°C° 0 mm 5 mps 749 mmHg 75%
    06:00 -8°C° 0 mm 5 mps 749 mmHg 76%
    07:00 -8°C° 0 mm 5 mps 749 mmHg 75%
    08:00 -8°C° 0 mm 5 mps 749 mmHg 75%
    09:00 -7°C° 0 mm 5 mps 749 mmHg 74%
    10:00 -7°C° 0 mm 5 mps 749 mmHg 73%
    11:00 -6°C° 0 mm 5 mps 749 mmHg 71%
    12:00 -5°C° 0 mm 5 mps 749 mmHg 69%
    13:00 -5°C° 0 mm 5 mps 749 mmHg 69%
    14:00 -5°C° 0 mm 5 mps 749 mmHg 68%
    15:00 -4°C° 0 mm 4 mps 748 mmHg 68%
    16:00 -4°C° 0.1 mm 4 mps 748 mmHg 74%
    17:00 -5°C° 0.1 mm 3 mps 748 mmHg 80%
    18:00 -6°C° 0.1 mm 3 mps 748 mmHg 86%
    19:00 -7°C° 0.4 mm 4 mps 749 mmHg 87%
    20:00 -8°C° 0.4 mm 5 mps 749 mmHg 88%
    21:00 -10°C° 0.4 mm 6 mps 749 mmHg 89%
    22:00 -11°C° 0.5 mm 6 mps 749 mmHg 89%
    23:00 -12°C° 0.5 mm 6 mps 750 mmHg 89%

    23 February, Saturday

    Time Temperature Precipitation Wind Pressure Humidity
    00:00 -14°C° 0.5 mm 6 mps 750 mmHg 90%
    01:00 -14°C° 0.3 mm 6 mps 750 mmHg 89%
    02:00 -14°C° 0.3 mm 6 mps 750 mmHg 89%
    03:00 -14°C° 0.3 mm 6 mps 750 mmHg 88%
    04:00 -14°C° 0.3 mm 7 mps 751 mmHg 88%
    05:00 -15°C° 0.3 mm 7 mps 751 mmHg 88%
    06:00 -15°C° 0.3 mm 7 mps 751 mmHg 88%
    07:00 -15°C° 0.2 mm 7 mps 751 mmHg 87%
    08:00 -14°C° 0.2 mm 7 mps 752 mmHg 87%
    09:00 -15°C° 0.2 mm 8 mps 752 mmHg 86%
    10:00 -14°C° 0.2 mm 7 mps 753 mmHg 87%
    11:00 -14°C° 0.2 mm 7 mps 753 mmHg 87%
    12:00 -13°C° 0.2 mm 7 mps 753 mmHg 87%
    13:00 -13°C° 0.1 mm 7 mps 753 mmHg 87%
    14:00 -13°C° 0.1 mm 7 mps 754 mmHg 86%
    15:00 -12°C° 0.1 mm 7 mps 754 mmHg 85%
    16:00 -12°C° 0 mm 7 mps 754 mmHg 86%
    17:00 -13°C° 0 mm 7 mps 754 mmHg 87%
    18:00 -13°C° 0 mm 7 mps 755 mmHg 87%
    19:00 -12°C° 0.1 mm 6 mps 755 mmHg 88%
    20:00 -12°C° 0.1 mm 6 mps 756 mmHg 88%
    21:00 -12°C° 0.1 mm 6 mps 756 mmHg 89%
    22:00 -14°C° 0 mm 6 mps 756 mmHg 89%
    23:00 -14°C° 0 mm 6 mps 756 mmHg 89%

    24 February, Sunday

    Time Temperature Precipitation Wind Pressure Humidity
    00:00 -14°C° 0 mm 6 mps 756 mmHg 90%
    01:00 -14°C° 0 mm 6 mps 756 mmHg 90%
    02:00 -14°C° 0 mm 6 mps 756 mmHg 90%
    03:00 -13°C° 0 mm 5 mps 756 mmHg 90%
    04:00 -13°C° 0 mm 5 mps 756 mmHg 91%
    05:00 -13°C° 0 mm 5 mps 756 mmHg 91%
    06:00 -13°C° 0 mm 5 mps 756 mmHg 91%
    07:00 -13°C° 0 mm 5 mps 756 mmHg 91%
    08:00 -13°C° 0 mm 5 mps 757 mmHg 91%
    09:00 -13°C° 0 mm 5 mps 757 mmHg 91%
    10:00 -12°C° 0.1 mm 5 mps 757 mmHg 91%
    11:00 -11°C° 0.1 mm 5 mps 757 mmHg 91%
    12:00 -11°C° 0.1 mm 5 mps 757 mmHg 91%
    13:00 -10°C° 0.2 mm 5 mps 757 mmHg 91%
    14:00 -10°C° 0.2 mm 5 mps 757 mmHg 91%
    15:00 -10°C° 0.2 mm 5 mps 756 mmHg 91%
    16:00 -10°C° 0.1 mm 5 mps 757 mmHg 91%
    17:00 -10°C° 0.1 mm 5 mps 757 mmHg 91%
    18:00 -10°C° 0.1 mm 5 mps 757 mmHg 91%
    19:00 -10°C° 0.1 mm 5 mps 757 mmHg 91%
    20:00 -10°C° 0.1 mm 5 mps 757 mmHg 92%
    21:00 -10°C° 0.1 mm 5 mps 757 mmHg 92%
    22:00 -11°C° 0.1 mm 5 mps 757 mmHg 92%
    23:00 -11°C° 0.1 mm 5 mps 757 mmHg 92%

    25 February, Monday

    Time Temperature Precipitation Wind Pressure Humidity
    00:00 -11°C° 0.1 mm 5 mps 757 mmHg 92%
    01:00 -11°C° 0 mm 5 mps 757 mmHg 93%
    02:00 -11°C° 0 mm 5 mps 757 mmHg 93%
    03:00 -11°C° 0 mm 5 mps 757 mmHg 93%
    04:00 -11°C° 0.1 mm 5 mps 757 mmHg 93%
    05:00 -11°C° 0.1 mm 5 mps 756 mmHg 93%
    06:00 -11°C° 0.1 mm 5 mps 756 mmHg 93%
    07:00 -11°C° 0.1 mm 5 mps 756 mmHg 93%
    08:00 -11°C° 0.1 mm 5 mps 756 mmHg 94%
    09:00 -10°C° 0.1 mm 5 mps 757 mmHg 94%
    10:00 -10°C° 0.1 mm 5 mps 756 mmHg 93%
    11:00 -8°C° 0.1 mm 5 mps 756 mmHg 93%
    12:00 -7°C° 0.1 mm 5 mps 756 mmHg 93%
    13:00 -7°C° 0 mm 4 mps 756 mmHg 93%
    14:00 -5°C° 0 mm 4 mps 755 mmHg 93%
    15:00 -5°C° 0 mm 4 mps 755 mmHg 92%
    16:00 -5°C° 0 mm 4 mps 754 mmHg 93%
    17:00 -6°C° 0 mm 3 mps 754 mmHg 93%
    18:00 -6°C° 0 mm 3 mps 754 mmHg 94%
    19:00 -7°C° 0 mm 3 mps 753 mmHg 94%
    20:00 -8°C° 0 mm 3 mps 753 mmHg 94%
    21:00 -8°C° 0 mm 2 mps 752 mmHg 94%
    22:00 -8°C° 0 mm 2 mps 752 mmHg 94%
    23:00 -8°C° 0 mm 2 mps 751 mmHg 94%
    Show more